STARLINK-3308 (50846 NORAD) Tracking and Keplerian Element Data

This shows tracking and keplerian element data for the satellite.

Feedback or suggestion? Click here.




ElementValue
Catalog50846
NameSTARLINK-3308
Epoch Orbit380
Epoch Day22.91667824
Epoch Year2022
RAAN119.7401
Inclination53.2175
Eccentricity0.0001048
Argument of Perigee66.4465
Mean Anonmoly258.4653
Mean Motion15.75459449
Decay Rate-0.00821323
L11 50846U 22001AV 22022.91667824 -.00821323 00000+0 -58391-2 0 9997
L22 50846 53.2175 119.7401 0001048 66.4465 258.4653 15.75459449 3802

Live tracking and technical data element details for STARLINK-3308 (NORAD 50846). STARLINK-3308 can be tracked NOW for your location showing map with azimuth and elevation plus other details from your city location.

Track the satellite on the map from your city or location and see movement details for azimuth, elevation, latitude, longitude, range, height, and movement on the map or in text.







IsCatalogInMostPopularTable: catalog: 50846, numindb: 4
Update: records affected: 1



GetName: 50846 STARLINK-3308

Hit Count: updated at: Mon, 24 Jan 2022 01:19:34 GMT